Participated 8 times
Between 1957 and 1966
Jacques Anquetil, France
Tour de France 2026 starts from Edinburgh, Scotland in

Stats and Facts from
Tour de France.

2026   2025   2024   2023  2022  2021  2020  2019   2018  2017   2016   2015  2014  2013   2012   2011  2010   2009   2008   2007   2006   2005   2004   2003   2002   2001   2000   1999   1998   1997  1996   1995   1994   1993   1992  1991   1990   1989   1988   1987   1986   1985   1984   1983  1982  1981   1980   1979  1978  1977   1976  1975  1974  1973   1972   1971   1970  1969   1968   1967   1966   1965  1964  1963   1962   1961   1960   1959   1958   1957  1956   1955   1954   1953   1952  1951  1950  1949   1948  1947  1939   1938   1937   1936   1935   1934   1933  1932   1931   1930  1929   1928   1927   1926  1925  1924  1923   1922   1921   1920   1919  1914   1913   1912   1911   1910  1909   1908   1907   1906  1905  1904   1903 

Tourstats
Sitemap

After stage 21 - 2026:
 16451 starters.
  5513 different riders.
  689 teams.
  2419 stages.
  470 restdays.
  469752.50 km.
  5946 abandoned riders.

Click map for 2014 route.
Facts from Tour de France 2014 Additional info and images from 2014.
  |   Stages.  |   Stage winners.  |   Days in jerseys.  |   Teams.  |   All riders.  |   All riders by age.  |   All riders from.  |  

  |   Rookies.  |   Withdrawls.  |   Average speed.  |   GC.  |   Polka  |   Green  |   White  |   Summits. (In tour)  |   Miscellaneous.  |  

Stage 20 on July 26th. 2014
Pick a stage:  1  2  3  4  5  6  7  8  9  10  11  12  13  14  15  16  17  18  19  20  21  

After stage 20:    Vincenzo Nibali    Rafał Majka    Peter Sagan    Thibaut Pinot  
  BergeracPérigueux | Dist: 54.00km. | Winner: Tony Martin

Podium

Average speed for all riders in stage:  44,212 km./hr.

1
 Tony Martin  Omega Pharma – Quick Step01h 06' 21"=48,832  km/h

2
 Tom Dumoulin  Giant-Shimano01h 08' 00"+  00:01:39 =47,647  km/h

3
 Jan Bárta  NetApp – Endura01h 08' 08"+  00:01:47 =47,554  km/h

4  Vincenzo Nibali  Astana Pro Team01h 08' 19"+  00:01:58 =47,426  km/h

5  Leopold König  NetApp – Endura01h 08' 23"+  00:02:02 =47,380  km/h

6  Tejay Van Garderen  BMC01h 08' 29"+  00:02:08 =47,311  km/h

7  Jean-Christophe Peraud  AG2R La Mondiale01h 08' 48"+  00:02:27 =47,093  km/h

8  Sylvain Chavanel  IAM Cycling01h 08' 57"+  00:02:36 =46,991  km/h

9  Markel Irizar  Trek Factory Racing01h 09' 00"+  00:02:39 =46,957  km/h

10  Daniel Oss  BMC01h 09' 19"+  00:02:58 =46,742  km/h

11  Danny Pate  Sky Procycling01h 09' 22"+  00:03:01 =46,708  km/h

12  Thibaut Pinot  FDJ.fr01h 09' 33"+  00:03:12 =46,585  km/h

13  Martin Elmiger  IAM Cycling01h 09' 33"+  00:03:12 =46,585  km/h

14  Maciej Bodnar  Cannondale Pro Cycling01h 09' 34"+  00:03:13 =46,574  km/h

15  Svein Tuft  Orica-GreenEDGE01h 09' 44"+  00:03:23 =46,463  km/h

16  Peter Velits  BMC01h 09' 45"+  00:03:24 =46,452  km/h

17  Nelson Oliveira  Lampre-Merida01h 09' 51"+  00:03:30 =46,385  km/h

18  Tanel Kangert  Astana Pro Team01h 09' 56"+  00:03:35 =46,330  km/h

19  Luke Durbridge  Orica-GreenEDGE01h 09' 59"+  00:03:38 =46,297  km/h

20  Lieuwe Westra  Astana Pro Team01h 10' 05"+  00:03:44 =46,231  km/h

21  Haimar  Zubeldía  Trek Factory Racing01h 10' 06"+  00:03:45 =46,220  km/h

22  Ion Izagirre  Movistar01h 10' 21"+  00:04:00 =46,055  km/h

23  Andriy Grivko  Astana Pro Team01h 10' 26"+  00:04:05 =46,001  km/h

24  Gatis Smukulis  Katusha01h 10' 27"+  00:04:06 =45,990  km/h

25  Giovanni Visconti  Movistar01h 10' 36"+  00:04:15 =45,892  km/h

26  Romain Bardet  AG2R La Mondiale01h 10' 38"+  00:04:17 =45,871  km/h

27  José Mendes  NetApp – Endura01h 10' 44"+  00:04:23 =45,806  km/h

28  Alejandro Valverde  Movistar01h 10' 49"+  00:04:28 =45,752  km/h

29  Jérémy Roy  FDJ.fr01h 10' 51"+  00:04:30 =45,730  km/h

30  Jesus Herrada  Movistar01h 10' 52"+  00:04:31 =45,720  km/h

31  Rein Taaramäe  Cofidis – Solutions Crédits01h 11' 02"+  00:04:41 =45,612  km/h

32  Imanol Erviti  Movistar01h 11' 05"+  00:04:44 =45,580  km/h

33  Dmitriy Gruzdev  Astana Pro Team01h 11' 17"+  00:04:56 =45,452  km/h

34  Geraint Thomas  Sky Procycling01h 11' 22"+  00:05:01 =45,399  km/h

35  Florian Vachon  Bretagne-Séché Environnement01h 11' 27"+  00:05:06 =45,346  km/h

36  Johan Vansummeren  Garmin Sharp01h 11' 32"+  00:05:11 =45,294  km/h

37  Matthieu Ladagnous  FDJ.fr01h 11' 34"+  00:05:13 =45,272  km/h

38  Vladimir Isaichev  Katusha01h 11' 34"+  00:05:13 =45,272  km/h

39  Anthony Delaplace  Bretagne-Séché Environnement01h 11' 37"+  00:05:16 =45,241  km/h

40  Beñat Intxausti  Movistar01h 11' 37"+  00:05:16 =45,241  km/h

41  Benjamin King  Garmin Sharp01h 11' 39"+  00:05:18 =45,220  km/h

42  Bartosz Huzarski  NetApp – Endura01h 11' 40"+  00:05:19 =45,209  km/h

43  Adrien Petit  Cofidis – Solutions Crédits01h 11' 46"+  00:05:25 =45,146  km/h

44  Tony Gallopin  Lotto-Belisol01h 11' 52"+  00:05:31 =45,083  km/h

45  Cyril Lemoine  Cofidis – Solutions Crédits01h 11' 55"+  00:05:34 =45,052  km/h

46  Steven Kruijswijk  Belkin Pro Cycling01h 12' 04"+  00:05:43 =44,958  km/h

47  Paul Voss  NetApp – Endura01h 12' 08"+  00:05:47 =44,917  km/h

48  José Serpa  Lampre-Merida01h 12' 09"+  00:05:48 =44,906  km/h

49  Tiago Machado  NetApp – Endura01h 12' 11"+  00:05:50 =44,886  km/h

50  Sérgio Paulinho  Saxo Bank-Tinkoff Bank01h 12' 20"+  00:05:59 =44,793  km/h

51  Perrig Quemeneur  Europcar01h 12' 20"+  00:05:59 =44,793  km/h

52  Jurgen Van Den Broeck  Lotto-Belisol01h 12' 22"+  00:06:01 =44,772  km/h

53  Michal Kwiatkowski  Omega Pharma – Quick Step01h 12' 23"+  00:06:02 =44,762  km/h

54  Christophe Riblon  AG2R La Mondiale01h 12' 23"+  00:06:02 =44,762  km/h

55  Laurens Ten Dam  Belkin Pro Cycling01h 12' 24"+  00:06:03 =44,751  km/h

56  Jens Keukeleire  Orica-GreenEDGE01h 12' 29"+  00:06:08 =44,700  km/h

57  Andreas Schillinger  NetApp – Endura01h 12' 30"+  00:06:09 =44,690  km/h

58  Rafał Majka  Saxo Bank-Tinkoff Bank01h 12' 31"+  00:06:10 =44,679  km/h

59  Luis Angel Mate  Cofidis – Solutions Crédits01h 12' 31"+  00:06:10 =44,679  km/h

60  Jérôme Pineau  IAM Cycling01h 12' 32"+  00:06:11 =44,669  km/h

61  Michael Albasini  Orica-GreenEDGE01h 12' 35"+  00:06:14 =44,638  km/h

62  Yury  Trofimov  Katusha01h 12' 39"+  00:06:18 =44,597  km/h

63  Arnaud Gérard  Bretagne-Séché Environnement01h 12' 39"+  00:06:18 =44,597  km/h

64  Greg Van Avermaet  BMC01h 12' 42"+  00:06:21 =44,567  km/h

65  Fränk Schleck  Trek Factory Racing01h 12' 43"+  00:06:22 =44,556  km/h

66  Lars Bak  Lotto-Belisol01h 12' 43"+  00:06:22 =44,556  km/h

67  Marcel Wyss  IAM Cycling01h 12' 50"+  00:06:29 =44,485  km/h

68  Peter Sagan  Cannondale Pro Cycling01h 12' 52"+  00:06:31 =44,465  km/h

69  Bryan Coquard  Europcar01h 12' 54"+  00:06:33 =44,444  km/h

70  Michele Scarponi  Astana Pro Team01h 12' 58"+  00:06:37 =44,404  km/h

71  Mickael Delage  FDJ.fr01h 13' 00"+  00:06:39 =44,384  km/h

72  Richie Porte  Sky Procycling01h 13' 02"+  00:06:41 =44,363  km/h

73  Arnaud Démare  FDJ.fr01h 13' 05"+  00:06:44 =44,333  km/h

74  Nicolas Edet  Cofidis – Solutions Crédits01h 13' 13"+  00:06:52 =44,252  km/h

75  Jan Bakelants  Omega Pharma – Quick Step01h 13' 24"+  00:07:03 =44,142  km/h

76  Matteo Trentin  Omega Pharma – Quick Step01h 13' 25"+  00:07:04 =44,132  km/h

77  Mikel Nieve  Sky Procycling01h 13' 25"+  00:07:04 =44,132  km/h

78  Michael Rogers  Saxo Bank-Tinkoff Bank01h 13' 26"+  00:07:05 =44,122  km/h

79  Zakkari Dempster  NetApp – Endura01h 13' 31"+  00:07:10 =44,072  km/h

80  Lars Boom  Belkin Pro Cycling01h 13' 32"+  00:07:11 =44,062  km/h

81  Koen De Kort  Giant-Shimano01h 13' 33"+  00:07:12 =44,052  km/h

82  Jürgen Roelandts  Lotto-Belisol01h 13' 35"+  00:07:14 =44,032  km/h

83  Christopher Horner  Lampre-Merida01h 13' 37"+  00:07:16 =44,012  km/h

84  Marco Marcato  Cannondale Pro Cycling01h 13' 39"+  00:07:18 =43,992  km/h

85  Ben Gastauer  AG2R La Mondiale01h 13' 39"+  00:07:18 =43,992  km/h

86  Brice Feillu  Bretagne-Séché Environnement01h 13' 42"+  00:07:21 =43,962  km/h

87  Alexander Kristoff  Katusha01h 13' 44"+  00:07:23 =43,942  km/h

88  Alexandre Pichot  Europcar01h 13' 44"+  00:07:23 =43,942  km/h

89  Roger Kluge  IAM Cycling01h 13' 47"+  00:07:26 =43,912  km/h

90  Pierre Rolland  Europcar01h 13' 47"+  00:07:26 =43,912  km/h

91  Michael Schär  BMC01h 13' 48"+  00:07:27 =43,902  km/h

92  John Degenkolb  Giant-Shimano01h 13' 49"+  00:07:28 =43,893  km/h

93  Michał Gołaś  Omega Pharma – Quick Step01h 13' 50"+  00:07:29 =43,883  km/h

94  Kévin Reza  Europcar01h 13' 51"+  00:07:30 =43,873  km/h

95  William  Bonnet  FDJ.fr01h 13' 53"+  00:07:32 =43,853  km/h

96  Marcel Sieberg  Lotto-Belisol01h 13' 54"+  00:07:33 =43,843  km/h

97  Nicolas Roche  Saxo Bank-Tinkoff Bank01h 13' 55"+  00:07:34 =43,833  km/h

98  Adam Hansen  Lotto-Belisol01h 13' 57"+  00:07:36 =43,813  km/h

99  Arnold Jeannesson  FDJ.fr01h 13' 57"+  00:07:36 =43,813  km/h

100  Rudy Molard  Cofidis – Solutions Crédits01h 13' 58"+  00:07:37 =43,804  km/h

101  Benoît Jarrier  Bretagne-Séché Environnement01h 14' 01"+  00:07:40 =43,774  km/h

102  Albert Timmer  Giant-Shimano01h 14' 02"+  00:07:41 =43,764  km/h

103  Peter Stetina  BMC01h 14' 03"+  00:07:42 =43,754  km/h

104  Matteo Montaguti  AG2R La Mondiale01h 14' 04"+  00:07:43 =43,744  km/h

105  Amaël Moinard  BMC01h 14' 06"+  00:07:45 =43,725  km/h

106  John Gadret  Movistar01h 14' 08"+  00:07:47 =43,705  km/h

107  Daniele Bennati  Saxo Bank-Tinkoff Bank01h 14' 09"+  00:07:48 =43,695  km/h

108  Rubén Plaza  Movistar01h 14' 11"+  00:07:50 =43,676  km/h

109  Yukiya  Arashiro  Europcar01h 14' 15"+  00:07:54 =43,636  km/h

110  Christian Meier  Orica-GreenEDGE01h 14' 17"+  00:07:56 =43,617  km/h

111  Jack Bauer  Garmin Sharp01h 14' 18"+  00:07:57 =43,607  km/h

112  Sébastien Reichenbach  IAM Cycling01h 14' 20"+  00:07:59 =43,587  km/h

113  Bernhard Eisel  Sky Procycling01h 14' 26"+  00:08:05 =43,529  km/h

114  Kristijan Ðurasek  Lampre-Merida01h 14' 27"+  00:08:06 =43,519  km/h

115  Matteo Tosatto  Saxo Bank-Tinkoff Bank01h 14' 31"+  00:08:10 =43,480  km/h

116  Kristjan Koren  Cannondale Pro Cycling01h 14' 35"+  00:08:14 =43,441  km/h

117  Florian Guillou  Bretagne-Séché Environnement01h 14' 39"+  00:08:18 =43,403  km/h

118  Tom-Jelte Slagter  Garmin Sharp01h 14' 41"+  00:08:20 =43,383  km/h

119  Bram Tankink  Belkin Pro Cycling01h 14' 49"+  00:08:28 =43,306  km/h

120  Cyril Gautier  Europcar01h 14' 55"+  00:08:34 =43,248  km/h

121  Tom Veelers  Giant-Shimano01h 15' 02"+  00:08:41 =43,181  km/h

122  Sébastien Minard  AG2R La Mondiale01h 15' 02"+  00:08:41 =43,181  km/h

123  Ramūnas Navardauskas  Garmin Sharp01h 15' 03"+  00:08:42 =43,171  km/h

124  Yohann Gène  Europcar01h 15' 12"+  00:08:51 =43,085  km/h

125  Jakob Fuglsang  Astana Pro Team01h 15' 14"+  00:08:53 =43,066  km/h

126  Julien Simon  Cofidis – Solutions Crédits01h 15' 16"+  00:08:55 =43,047  km/h

127  Alessandro Petacchi  Omega Pharma – Quick Step01h 15' 16"+  00:08:55 =43,047  km/h

128  Michael Mørkøv  Saxo Bank-Tinkoff Bank01h 15' 16"+  00:08:55 =43,047  km/h

129  Davide Cimolai  Lampre-Merida01h 15' 17"+  00:08:56 =43,037  km/h

130  André Greipel  Lotto-Belisol01h 15' 20"+  00:08:59 =43,009  km/h

131  Niki Terpstra  Omega Pharma – Quick Step01h 15' 26"+  00:09:05 =42,952  km/h

132  Vasil Kiryienka  Sky Procycling01h 15' 34"+  00:09:13 =42,876  km/h

133  Maxim Iglinskiy  Astana Pro Team01h 15' 35"+  00:09:14 =42,867  km/h

134  Sep Vanmarcke  Belkin Pro Cycling01h 15' 35"+  00:09:14 =42,867  km/h

135  Cédric Pineau  FDJ.fr01h 15' 36"+  00:09:15 =42,857  km/h

136  Simon Clarke  Orica-GreenEDGE01h 15' 37"+  00:09:16 =42,848  km/h

137  Jean-Marc Bideau  Bretagne-Séché Environnement01h 15' 39"+  00:09:18 =42,829  km/h

138  Roy Curvers  Giant-Shimano01h 15' 40"+  00:09:19 =42,819  km/h

139  Sebastian Langeveld  Garmin Sharp01h 15' 42"+  00:09:21 =42,801  km/h

140  Bauke Mollema  Belkin Pro Cycling01h 15' 47"+  00:09:26 =42,753  km/h

141  Armindo Fonseca  Bretagne-Séché Environnement01h 15' 49"+  00:09:28 =42,735  km/h

142  Alessandro De Marchi  Cannondale Pro Cycling01h 15' 51"+  00:09:30 =42,716  km/h

143  Joaquin Rodriguez  Katusha01h 15' 52"+  00:09:31 =42,707  km/h

144  Jens Voigt  Trek Factory Racing01h 15' 53"+  00:09:32 =42,697  km/h

145  Marcel Kittel  Giant-Shimano01h 15' 54"+  00:09:33 =42,688  km/h

146  Fabio Sabatini  Cannondale Pro Cycling01h 15' 54"+  00:09:33 =42,688  km/h

147  Matthew Busche  Trek Factory Racing01h 16' 02"+  00:09:41 =42,613  km/h

148  Jean-Marc Marino  Cannondale Pro Cycling01h 16' 04"+  00:09:43 =42,594  km/h

149  Gregory Rast  Trek Factory Racing01h 16' 11"+  00:09:50 =42,529  km/h

150  Mark Renshaw  Omega Pharma – Quick Step01h 16' 11"+  00:09:50 =42,529  km/h

151  Tom Leezer  Belkin Pro Cycling01h 16' 14"+  00:09:53 =42,501  km/h

152  David Lopez  Sky Procycling01h 16' 14"+  00:09:53 =42,501  km/h

153  Elia Viviani  Cannondale Pro Cycling01h 16' 17"+  00:09:56 =42,473  km/h

154  Maarten Wynants  Belkin Pro Cycling01h 16' 17"+  00:09:56 =42,473  km/h

155  Blel Kadri  AG2R La Mondiale01h 16' 36"+  00:10:15 =42,298  km/h

156  Romain Feillu  Bretagne-Séché Environnement01h 16' 54"+  00:10:33 =42,133  km/h

157  Samuel Dumoulin  AG2R La Mondiale01h 16' 57"+  00:10:36 =42,105  km/h

158  Thomas  Voeckler  Europcar01h 17' 09"+  00:10:48 =41,996  km/h

159  Marcus Burghardt  BMC01h 17' 21"+  00:11:00 =41,888  km/h

160  Alessandro Vanotti  Astana Pro Team01h 18' 01"+  00:11:40 =41,530  km/h

161  Alex Howes  Garmin Sharp01h 18' 04"+  00:11:43 =41,503  km/h

162  Cheng Ji  Giant-Shimano01h 18' 32"+  00:12:11 =41,256  km/h

163  Mikaël Cherel  AG2R La Mondiale01h 18' 40"+  00:12:19 =41,186  km/h

164  Luca Paolini  Katusha01h 18' 49"+  00:12:28 =41,108  km/h


Todays birthdays.

1900 • Guy Bariffi
1901 • Alfonso Piccin
1934 • Jacques Champion
1936 • Raúl Rey
1960 • Marco Groppo
1963 • Stephan Joho
1975 • Alain Turicchia
1995 • Laurens De Plus

 

Optimized for Chrome - Edge
and Opera browsers.